Location: Unspecified
(0.0000°N, 0.0000°E)
Time: 11:18:21
(UTC+00:00)

ITAMSAT 1 - Pass Details

Date: 28 September 2021
Orbit: 783 x 797 km, 98.9° (Epoch: 15 October)

Event Time Altitude Azimuth Distance (km) Brightness Sun altitude
Rises 19:05:15 0° 175° (S) 3,290 10.9 -18.7°
Reaches altitude 10° 19:07:37 10° 179° (S) 2,357 10.1 -19.3°
Maximum altitude 19:12:42 57° 257° (WSW) 928 8.3 -20.5°
Drops below altitude 10° 19:17:46 10° 335° (NNW) 2,339 10.4 -21.8°
Sets 19:20:06 0° 339° (NNW) 3,263 11.1 -22.4°
